Regional Weather Roundup
Issued by NWS

Home | Current Version | Previous Version | Graphics & Text | Print | Product List | Glossary On
Versions: 1 2 3 4 5 6 7 8 9 10 11 12 13 14 15 16 17 18 19 20 21 22 23 24 25 26 27 28 29 30 31 32 33 34 35 36 37 38 39 40 41 42 43 44 45 46 47 48 49 50
000
ASUS45 KBOI 010810
RWRID
WEATHER ROUNDUP FOR IDAHO
NATIONAL WEATHER SERVICE BOISE ID
200 AM MDT WED APR 01 2015

NOTE: "FAIR" INDICATES FEW OR NO CLOUDS BELOW 12000 FEET
WITH NO SIGNIFICANT WEATHER AND/OR OBSTRUCTIONS TO VISIBILITY

IDZ012-014-010900-
SOUTHWEST IDAHO


CITY           SKY/WX    TMP DP  RH WIND       PRES   REMARKS
BOISE          CLOUDY    41  30  65 NW7       30.12R
CALDWELL       CLOUDY    43  25  49 NW17      30.15R
MOUNTAIN HOME  PTCLDY    39  27  62 W17       30.10R WCI  30
$$

IDZ016-017-010900-
SOUTHCENTRAL IDAHO


CITY           SKY/WX    TMP DP  RH WIND       PRES   REMARKS
BURLEY         PTCLDY    38  26  62 W15G25    30.02R WCI  29
JEROME         PTCLDY    37  27  67 W25G38    30.04R WCI  25
TWIN FALLS     MOCLDY    40  27  59 W20G29    30.05R WCI  30
$$

IDZ019>023-010900-
SOUTHEAST IDAHO


CITY           SKY/WX    TMP DP  RH WIND       PRES   REMARKS
IDAHO FALLS    PTCLDY    40  24  53 SW23G36   29.92R WCI  30
POCATELLO      PTCLDY    40  22  48 SW31G37   29.99R WCI  28
REXBURG        PTCLDY    39  26  59 SW13G30   29.86R WCI  31
$$

IDZ006-010-011-018-031-032-010900-
CENTRAL IDAHO MOUNTAINS


CITY           SKY/WX    TMP DP  RH WIND       PRES   REMARKS
MCCALL         CLOUDY    31  25  78 CALM      30.01S
HAILEY         CLEAR     37  19  48 W13G23    29.92R WCI  29
STANLEY          N/A     26  18  71 VRB5      29.98R WCI  20
SALMON         MOCLDY    34  30  86 CALM      29.97R
CHALLIS        PTCLDY    33  21  61 N7        29.96R WCI  27
$$

IDZ002-004-006-007-026-010900-
NORTHERN IDAHO


CITY           SKY/WX    TMP DP  RH WIND       PRES   REMARKS
LEWISTON       MOCLDY    44  33  65 S8        30.08R
LOWELL           N/A     41  39  93 CALM      30.09R
COEUR D`ALENE  CLEAR     36  21  55 W8        29.99R WCI  29
MULLAN PASS    CLEAR     23  17  78 VRB7      29.89R WCI  15
$$



USA.gov is the U.S. government's official web portal to all federal, state and local government web resources and services.